Location: Catstown
(52.4386°N, 7.2633°W)
Time: 05:04:20
(UTC+00:00)

Cosmos 1125 Rocket - Pass Details

Date: 18 September 2020
Orbit: 757 x 780 km, 74.0° (Epoch: 20 October)

Event Time Altitude Azimuth Distance (km) Brightness Sun altitude
Rises 20:38:43 0° 189° (S) 3,247 6.5 -18.7°
Reaches altitude 10° 20:41:08 10° 185° (S) 2,326 5.8 -19.0°
Maximum altitude 20:46:17 55° 109° (ESE) 933 3.5 -19.7°
Drops below altitude 10° 20:51:29 10° 32° (NNE) 2,345 6.0 -20.4°
Sets 20:53:54 0° 28° (NNE) 3,277 6.8 -20.7°
